Location: *
(35.2348°S, 91.3916°E)
Time: 04:52:29
(UTC+00:00)

Cosmos 1953 - Pass Details

Date: 23 October 2019
Orbit: 538 x 559 km, 82.5° (Epoch: 15 November)

Event Time Altitude Azimuth Distance (km) Brightness Sun altitude
Rises 22:26:55 0° 5° (N) 2,685 5.7 -7.5°
Reaches altitude 10° 22:29:05 10° 9° (N) 1,802 4.8 -7.1°
Maximum altitude 22:32:57 54° 86° (E) 665 3.2 -6.4°
Drops below altitude 10° 22:36:53 10° 164° (SSE) 1,832 5.5 -5.6°
Sets 22:39:06 0° 168° (SSE) 2,735 6.3 -5.2°
